User: anonymous   Login
Location: Unspecified
(0.0000°N, 0.0000°E)
Time: 00:57:48
(UTC+00:00)
Language:

NOSS 2-1 (D) - Orbit

View from above orbital plane
View from above orbital plane
View from above satellite
View from above satellite

Ground track
Ground track

The orbit data is extracted from the following two-line orbital elements,

1 20692U 90050D   24099.40824931 0.00008408  00000-0  64333-3 0    03
2 20692  63.3025 191.8722 0927098  69.4696 291.0042 13.50436308    06
Epoch (UTC): 08 April 2024 09:47:52
Eccentricity: 0.0927098
inclination: 63.3025°
perigee height: 380 km
apogee height: 1761 km
right ascension of ascending node: 191.8722°
argument of perigee: 69.4696°
revolutions per day: 13.50436308
mean anomaly at epoch: 291.0042°
orbit number at epoch: 0

The dashed part of the orbit path shows where the satellite is in the earth's shadow,  

DLR